Probability
3 13 71 68 61 65 65 61 61 65 68 77 71 74 71 68 65 61 65 71 65 55 61 61 61 71 65 58 58 58 48 55 52 52 55 58 61 71 71 77 61 48 77
6 23 65 71 61 55 55 58 58 55 58 61 71 68 68 65 74 71 68 61 65 55 65 68 61 65 68 65 61 61 58 48 45 52 52 48 58 61 61 65 58 48 71
10 19 48 65 65 58 61 55 61 58 61 61 68 68 65 61 65 58 61 61 58 61 55 65 65 61 65 58 58 61 61 52 52 45 42 26 32 55 65 65 61 61 68
10 13 32 61 65 58 55 55 52 45 45 52 58 65 61 61 58 55 55 52 52 52 55 65 58 61 71 61 52 55 52 48 52 32 6 13 10 42 58 68 58 58 61
0 10 32 58 74 61 61 52 52 48 55 48 52 58 55 52 61 61 55 55 55 52 58 61 52 58 58 55 58 55 42 52 48 19 3 3 10 42 55 61 58 58 65
3 16 39 65 68 65 58 61 52 55 52 42 32 35 52 61 58 68 61 65 58 48 52 55 55 55 58 52 52 55 45 48 29 10 6 6 13 42 52 52 52 55 61
3 10 39 74 71 68 61 58 52 52 52 48 39 35 42 55 58 61 58 58 52 48 58 61 55 52 55 52 52 58 55 32 6 6 3 6 16 45 45 39 45 52 55
6 6 29 68 71 74 68 65 61 55 52 45 42 52 55 55 55 58 58 61 61 58 58 55 48 45 42 45 55 55 45 32 16 6 3 0 29 42 35 32 42 45 45
10 6 16 29 42 71 68 65 61 61 61 58 61 65 55 52 52 55 55 58 65 58 58 48 45 45 48 58 55 61 52 39 3 3 3 6 29 32 29 35 35 45 42
3 0 0 10 16 23 42 61 68 65 68 65 68 68 65 58 55 55 52 65 61 65 55 52 48 58 55 58 58 52 45 23 6 3 3 6 26 19 26 35 45 42 35
3 0 0 3 3 10 10 32 42 58 58 55 48 55 29 13 13 29 52 58 55 52 52 52 52 58 45 42 52 42 29 3 0 0 3 16 19 23 35 42 42 45 32
6 3 6 3 3 3 13 13 13 16 16 16 6 13 6 3 3 13 45 58 52 45 42 52 52 45 39 19 23 29 3 3 0 0 0 23 29 26 29 42 42 39 39
6 10 10 10 3 3 3 3 6 3 10 3 3 0 3 0 3 6 6 29 29 32 19 29 29 23 26 19 10 6 3 3 0 0 0 23 29 32 29 39 32 32 35
6 6 10 16 10 3 0 0 0 0 3 3 0 0 3 3 0 0 3 3 6 13 10 13 16 16 10 13 6 6 6 6 6 3 3 23 32 35 29 39 23 23 29
6 6 6 6 3 3 0 0 3 0 0 3 3 3 3 0 0 6 10 6 3 10 10 6 10 13 10 10 6 6 6 6 6 6 6 23 29 32 29 32 29 29 29
6 3 3 3 3 3 3 3 0 3 3 10 10 10 6 0 3 10 6 10 6 3 6 3 13 6 6 6 6 6 6 6 6 6 6 16 35 32 39 29 35 29 32
6 3 3 6 6 3 3 6 3 6 6 6 10 10 3 3 3 3 6 6 13 10 13 10 13 6 6 6 3 6 3 3 3 3 3 6 10 29 35 35 32 45 48
6 6 13 16 6 6 3 10 10 6 6 10 10 6 6 13 3 3 6 3 13 10 13 13 13 10 10 6 6 6 6 3 3 3 3 6 6 10 16 29 35 42 45
6 6 13 16 10 10 10 6 10 10 16 19 16 16 16 23 13 10 13 13 13 6 10 16 13 13 6 10 10 10 6 6 10 6 6 3 6 6 6 13 35 39 39
6 10 10 6 13 19 16 13 16 19 19 16 23 19 16 23 16 10 10 10 16 13 13 10 13 16 13 13 19 16 13 6 6 6 10 6 6 6 6 6 16 32 39
13 13 16 16 13 10 19 19 16 16 19 19 23 23 16 16 16 19 23 19 16 16 16 13 13 16 13 16 19 13 10 10 10 10 16 16 16 13 13 13 13 10 19
13 13 19 16 19 19 26 23 19 23 16 16 19 19 26 19 19 19 19 19 19 16 13 16 19 16 23 16 13 10 6 3 3 6 6 10 16 19 19 23 16 13 10
16 19 26 19 19 23 29 26 26 19 23 29 23 26 26 19 23 16 16 19 23 23 23 19 19 23 23 23 13 13 13 3 3 3 6 6 10 10 10 10 10 16 13
26 23 23 26 23 19 19 29 23 26 29 26 26 29 29 23 26 29 26 19 23 26 19 16 19 19 26 23 19 19 16 3 6 6 0 0 6 6 10 10 10 13 13
32 35 26 26 32 26 19 23 26 26 23 23 26 29 29 32 39 32 29 26 26 19 23 23 19 26 23 23 23 19 16 16 3 6 6 3 3 6 3 10 10 10 6
23 32 29 26 26 26 29 29 32 29 29 29 26 29 29 32 32 32 23 23 32 29 23 26 29 29 29 32 26 23 26 19 10 3 3 3 3 6 6 6 10 10 13
Height
5885 5884 5884 5883 5883 5883 5882 5882 5882 5883 5883 5884 5884 5885 5885 5885 5885 5886 5886 5887 5887 5888 5888 5889 5889 5890 5890 5890 5891 5891 5891 5891 5891 5891 5892 5892 5893 5893 5893 5894 5894 5894 5895
5885 5885 5885 5884 5884 5883 5883 5883 5883 5884 5884 5884 5885 5885 5886 5886 5886 5886 5887 5887 5888 5888 5889 5889 5890 5890 5890 5891 5891 5891 5891 5891 5891 5891 5892 5892 5893 5893 5893 5893 5894 5894 5895
5886 5885 5885 5884 5884 5884 5884 5884 5884 5884 5885 5885 5885 5885 5886 5886 5886 5887 5887 5888 5888 5889 5889 5890 5890 5891 5891 5891 5891 5892 5891 5891 5891 5892 5892 5893 5893 5893 5893 5893 5893 5894 5894
5887 5886 5886 5885 5885 5884 5884 5884 5885 5885 5885 5885 5885 5885 5886 5886 5887 5887 5887 5888 5889 5889 5890 5890 5890 5891 5891 5891 5891 5891 5891 5892 5892 5892 5892 5893 5893 5893 5893 5893 5893 5893 5894
5887 5887 5886 5885 5885 5885 5885 5885 5885 5885 5885 5885 5885 5885 5885 5886 5887 5887 5888 5888 5889 5889 5890 5890 5890 5891 5891 5892 5891 5892 5892 5892 5892 5892 5892 5892 5892 5892 5893 5893 5893 5893 5893
5888 5887 5887 5886 5886 5886 5885 5885 5885 5884 5884 5884 5884 5885 5885 5886 5887 5887 5888 5888 5889 5889 5890 5890 5890 5891 5892 5892 5892 5892 5892 5892 5892 5892 5892 5892 5892 5892 5892 5892 5893 5893 5893
5889 5888 5887 5887 5886 5886 5885 5885 5885 5884 5884 5883 5884 5884 5885 5886 5887 5887 5888 5888 5888 5889 5889 5890 5890 5891 5892 5892 5892 5892 5892 5892 5892 5892 5892 5892 5892 5892 5892 5892 5892 5892 5892
5889 5889 5888 5888 5887 5886 5886 5885 5885 5884 5882 5882 5882 5884 5885 5886 5886 5887 5887 5888 5888 5889 5889 5890 5890 5890 5891 5891 5892 5892 5892 5892 5892 5892 5892 5892 5892 5892 5892 5892 5892 5892 5892
5890 5890 5889 5889 5888 5887 5887 5886 5885 5883 5881 5880 5881 5883 5884 5885 5886 5886 5886 5887 5887 5888 5889 5889 5889 5890 5890 5891 5891 5892 5892 5892 5892 5893 5892 5892 5892 5892 5892 5892 5891 5891 5891
5892 5891 5890 5889 5889 5888 5887 5886 5885 5883 5881 5879 5880 5883 5884 5885 5886 5886 5886 5886 5887 5888 5888 5889 5889 5889 5890 5890 5891 5891 5891 5892 5892 5892 5892 5892 5892 5892 5891 5891 5891 5890 5890
5893 5892 5891 5890 5889 5889 5888 5887 5886 5885 5883 5882 5883 5884 5885 5885 5886 5886 5886 5886 5886 5887 5887 5888 5888 5888 5889 5890 5890 5891 5891 5891 5892 5892 5892 5892 5891 5891 5891 5890 5890 5889 5889
5894 5893 5892 5891 5890 5889 5889 5888 5887 5887 5886 5885 5885 5885 5885 5886 5886 5886 5886 5886 5886 5886 5886 5887 5887 5888 5889 5889 5889 5890 5890 5891 5891 5891 5891 5891 5891 5890 5890 5890 5889 5889 5888
5895 5895 5894 5893 5892 5891 5890 5889 5889 5888 5888 5887 5887 5886 5886 5886 5886 5886 5886 5886 5886 5886 5886 5886 5887 5887 5888 5888 5889 5889 5890 5890 5890 5890 5891 5890 5890 5890 5889 5889 5888 5888 5887
5897 5896 5895 5894 5893 5892 5892 5891 5890 5890 5889 5889 5888 5888 5887 5887 5887 5887 5887 5887 5886 5886 5886 5886 5886 5886 5887 5888 5888 5888 5889 5889 5890 5890 5890 5890 5889 5889 5888 5888 5887 5887 5886
5899 5898 5897 5896 5895 5894 5893 5893 5892 5892 5891 5890 5890 5889 5889 5888 5888 5888 5887 5887 5886 5886 5886 5886 5886 5886 5887 5887 5888 5888 5888 5889 5889 5889 5889 5889 5888 5888 5888 5887 5886 5886 5885
5900 5899 5898 5897 5897 5896 5895 5894 5893 5893 5892 5892 5891 5890 5890 5889 5889 5888 5888 5887 5887 5886 5886 5886 5886 5886 5887 5887 5887 5887 5887 5888 5888 5888 5888 5888 5887 5887 5886 5886 5886 5885 5884
5902 5901 5900 5899 5898 5897 5897 5896 5895 5894 5893 5893 5892 5891 5891 5890 5890 5889 5889 5888 5887 5887 5887 5887 5887 5887 5886 5886 5886 5887 5887 5887 5887 5887 5887 5887 5886 5886 5885 5885 5884 5884 5883
5904 5903 5902 5901 5900 5899 5898 5897 5896 5895 5894 5893 5893 5892 5891 5891 5890 5890 5890 5889 5888 5887 5887 5887 5887 5887 5886 5886 5886 5886 5886 5886 5885 5885 5885 5885 5885 5885 5884 5884 5883 5882 5882
5905 5904 5904 5903 5902 5901 5900 5898 5897 5896 5895 5894 5894 5893 5892 5891 5891 5891 5890 5889 5888 5887 5887 5887 5886 5886 5886 5886 5885 5885 5885 5884 5884 5884 5884 5884 5884 5884 5883 5883 5882 5881 5880
5907 5906 5905 5904 5903 5902 5900 5899 5898 5896 5896 5895 5894 5893 5893 5892 5891 5891 5890 5889 5888 5888 5887 5886 5886 5886 5886 5885 5885 5885 5884 5883 5883 5883 5882 5882 5882 5882 5882 5881 5880 5879 5878
5909 5908 5907 5906 5905 5903 5902 5900 5898 5896 5896 5895 5895 5894 5893 5892 5891 5891 5890 5889 5888 5887 5887 5886 5886 5885 5885 5884 5884 5884 5883 5883 5882 5882 5881 5881 5880 5880 5880 5879 5878 5877 5876
5911 5910 5909 5907 5906 5904 5903 5901 5900 5898 5897 5896 5895 5895 5894 5893 5892 5891 5890 5889 5888 5887 5886 5885 5885 5884 5884 5884 5883 5883 5882 5882 5881 5881 5880 5880 5879 5879 5878 5877 5876 5875 5874
5913 5912 5910 5909 5907 5906 5904 5903 5901 5900 5899 5897 5896 5895 5894 5893 5892 5891 5890 5889 5888 5887 5886 5885 5884 5884 5883 5883 5882 5882 5881 5881 5880 5880 5879 5878 5877 5876 5876 5875 5874 5873 5872
5915 5913 5912 5910 5908 5907 5905 5904 5903 5902 5900 5899 5898 5896 5895 5894 5893 5891 5890 5888 5887 5887 5886 5885 5884 5883 5882 5882 5881 5880 5880 5879 5879 5878 5878 5876 5875 5874 5873 5872 5871 5870 5869
5916 5915 5913 5911 5910 5908 5907 5905 5904 5902 5901 5900 5899 5897 5896 5894 5893 5891 5890 5889 5887 5886 5885 5884 5883 5882 5881 5880 5879 5878 5878 5877 5876 5876 5875 5875 5873 5872 5871 5870 5869 5868 5866
5917 5916 5914 5912 5911 5910 5908 5906 5904 5902 5901 5900 5899 5897 5896 5894 5893 5891 5890 5888 5886 5885 5883 5882 5881 5880 5879 5878 5877 5876 5875 5875 5874 5873 5872 5872 5871 5869 5868 5867 5866 5865 5863
Wind_Speed
5 5 5 5 5 5 4 5 5 5 6 6 6 5 5 5 5 5 5 5 5 5 5 5 5 6 5 5 5 4 5 5 5 5 5 5 5 4 4 6 6 5 4
5 5 5 5 4 4 4 4 5 5 4 5 5 5 5 5 5 5 5 5 4 4 4 4 5 5 5 5 5 4 4 5 4 5 5 5 4 3 4 5 5 5 4
4 5 5 5 4 4 4 4 3 4 4 5 5 5 5 4 4 4 4 4 4 4 4 4 5 5 5 4 3 3 4 4 4 4 4 4 4 3 3 4 5 5 5
5 5 4 4 4 3 3 3 3 3 3 4 4 4 5 4 4 4 4 5 4 4 4 4 4 5 4 3 3 3 4 4 3 3 4 4 4 4 4 5 5 4 5
5 5 5 5 4 3 3 2 2 2 2 3 3 3 4 4 4 4 4 4 4 4 3 4 4 5 5 4 3 3 4 4 3 3 3 2 3 4 5 5 5 4 5
6 6 6 6 4 4 4 3 2 2 1 2 2 3 4 4 4 4 3 3 3 4 3 4 4 5 5 4 3 3 3 4 4 4 3 2 2 3 5 5 5 4 4
6 6 6 6 5 4 4 3 2 2 1 2 2 3 3 3 4 4 4 4 4 4 4 4 5 5 5 4 3 3 3 4 4 4 4 3 2 3 4 5 4 4 5
6 6 7 7 6 5 5 4 4 2 1 2 2 3 3 3 3 3 4 4 4 4 4 5 5 5 4 4 3 3 3 3 3 3 3 3 2 3 4 3 3 4 4
7 7 7 7 7 6 6 5 4 4 3 2 3 3 3 3 3 3 3 3 4 4 4 5 5 5 4 4 4 4 4 4 3 2 2 2 2 2 2 2 3 3 3
8 8 8 7 7 6 5 5 5 5 4 3 3 4 3 3 3 3 3 3 3 3 4 4 4 4 4 4 4 4 4 4 3 2 1 2 1 1 1 2 2 3 3
8 9 9 8 8 7 6 5 5 5 6 5 4 3 3 3 3 2 2 2 2 3 4 4 4 4 3 4 4 4 5 4 3 2 1 1 0 0 1 2 3 3 3
9 10 9 9 9 8 8 7 6 6 6 6 5 4 3 3 3 2 2 2 2 3 3 4 2 3 3 4 4 4 4 4 4 3 2 0 0 1 1 2 2 3 3
9 9 9 9 9 9 8 8 8 7 7 7 6 5 4 4 3 2 2 2 2 3 3 3 2 3 3 3 3 3 3 3 4 3 2 1 1 1 2 2 2 2 3
10 10 10 10 10 10 9 9 8 8 8 7 6 6 5 5 5 4 4 3 3 2 3 3 3 3 3 3 3 3 3 3 2 2 2 2 1 2 2 2 3 3 3
11 11 10 11 11 10 9 8 8 8 8 7 7 6 6 6 5 5 5 4 3 3 3 3 3 3 3 3 3 3 3 3 2 2 2 2 2 2 3 2 3 3 4
11 11 11 11 11 10 9 9 8 7 7 7 7 7 6 6 6 5 4 4 3 3 4 3 3 3 3 3 3 3 3 3 2 2 2 2 3 2 2 2 2 3 4
11 12 11 11 11 10 10 9 8 7 6 7 7 6 6 5 5 5 4 3 3 3 2 2 3 2 2 2 2 3 3 3 3 3 3 3 3 2 2 2 3 3 4
11 11 11 11 10 9 10 9 8 7 6 6 6 6 6 5 4 4 4 3 3 2 2 2 2 1 1 1 2 2 3 4 4 4 3 3 2 3 3 3 3 4 4
11 11 11 11 10 9 9 9 8 7 6 5 5 5 5 4 4 3 3 3 3 3 2 2 1 1 1 1 1 2 3 4 5 4 3 3 4 4 4 4 4 4 5
13 12 11 10 10 9 9 9 8 7 6 5 5 5 5 4 4 3 3 2 2 2 3 2 2 1 1 1 1 2 3 3 4 4 5 5 5 5 6 6 5 5 6
13 12 11 10 10 9 9 9 9 8 7 6 6 6 6 5 4 3 3 3 3 3 3 2 2 2 2 1 2 2 3 3 3 3 4 5 5 6 6 6 6 6 6
13 12 11 11 10 9 9 9 9 8 7 7 5 6 6 7 6 4 4 5 5 5 4 3 3 3 3 3 2 3 4 3 4 5 6 6 7 7 7 7 8 7 7
12 12 12 12 11 10 9 10 10 9 8 7 7 7 7 6 6 6 5 5 5 5 5 5 4 4 4 4 4 4 5 5 5 6 6 7 8 8 8 8 9 9 9
12 11 12 12 12 11 10 10 10 9 9 8 8 7 6 7 7 7 7 7 5 5 6 5 4 4 4 5 5 5 5 6 6 6 7 7 8 9 9 9 9 9 9
11 11 11 12 12 11 11 10 10 9 9 9 9 8 7 7 7 7 7 7 6 6 6 5 5 5 6 6 6 7 7 7 7 7 7 7 8 9 10 10 11 11 11
10 10 10 11 11 11 11 10 10 10 10 10 10 9 8 7 7 7 7 7 7 7 7 7 7 7 7 8 8 8 8 8 8 8 8 8 8 9 9 11 11 11 12
Wind_Direction
65 64 71 71 74 77 85 98 110 127 132 136 137 132 128 128 132 137 145 144 136 143 151 150 159 166 166 158 156 159 162 169 176 183 177 170 181 191 191 188 185 185 185
64 64 69 67 69 79 90 99 105 119 135 142 140 135 133 135 139 142 146 142 144 147 152 155 158 159 159 160 158 167 162 166 182 190 184 181 180 186 188 191 190 185 186
61 65 66 61 65 78 87 100 111 122 130 147 150 147 143 145 146 150 151 143 148 152 146 146 148 146 151 153 159 171 171 176 187 184 192 202 205 192 191 194 187 185 186
56 59 61 61 62 78 90 104 117 131 141 156 162 167 161 156 153 145 147 148 149 150 143 140 147 148 149 142 149 164 176 187 185 176 194 207 214 213 205 193 185 184 192
60 62 61 62 65 83 96 110 132 142 157 174 180 185 175 167 168 162 157 161 155 151 144 149 155 156 157 144 141 154 178 182 181 185 192 196 208 215 208 198 192 194 205
62 60 62 67 68 82 92 95 109 133 160 172 180 174 171 180 179 174 165 164 161 160 158 161 161 152 157 154 147 156 165 174 176 188 186 193 207 211 203 203 194 206 213
66 64 65 68 71 74 83 81 85 94 144 176 186 181 175 176 178 175 174 171 169 175 177 175 169 162 162 166 169 167 171 174 176 181 185 203 221 221 210 207 210 220 229
68 65 63 62 62 71 76 83 78 81 123 181 190 176 176 173 175 179 184 187 188 189 188 185 177 173 173 170 174 174 174 180 181 190 199 203 216 198 198 201 222 226 233
64 64 62 56 61 67 71 69 66 62 63 118 160 157 164 175 192 197 184 183 185 192 192 193 195 187 182 185 191 192 190 193 182 192 188 164 161 186 196 206 217 233 242
65 65 62 57 62 66 68 65 60 56 58 90 135 154 153 163 182 192 181 181 204 206 198 199 196 189 192 190 188 194 212 207 197 188 175 150 143 248 235 240 259 252 251
64 64 63 61 61 63 67 67 63 62 68 91 111 129 134 148 160 170 178 203 218 217 211 211 201 199 197 191 191 201 210 210 206 205 188 162 108 251 253 269 267 259 254
67 64 62 62 61 63 66 66 65 64 69 80 91 96 104 120 139 158 175 204 212 212 207 203 189 193 193 186 198 212 215 219 216 213 210 215 258 306 283 286 272 266 252
70 65 63 63 63 62 64 68 69 70 71 77 85 86 84 95 113 138 147 133 153 191 195 184 190 181 187 183 186 204 205 211 217 214 212 233 271 302 303 298 284 282 260
70 67 67 65 63 64 67 73 74 73 76 79 81 79 81 92 99 111 116 113 110 132 156 171 181 162 160 178 191 204 194 192 209 209 221 239 262 298 310 304 288 282 283
70 69 72 73 69 69 71 76 75 75 74 78 83 79 83 92 94 104 110 110 107 110 126 133 130 153 156 158 179 184 179 174 179 195 210 236 265 286 314 311 304 291 289
70 69 71 72 72 70 71 72 72 68 69 71 77 79 87 98 99 102 103 99 93 108 120 103 120 140 161 168 174 180 186 189 194 201 219 249 267 285 319 324 317 300 296
71 70 71 68 68 67 67 68 66 68 68 68 72 77 85 92 96 100 92 89 92 95 114 114 130 159 174 182 184 183 184 201 207 214 230 251 264 272 289 319 321 310 308
67 68 68 66 64 63 62 63 58 58 61 68 73 75 81 87 86 88 84 76 71 67 91 135 147 138 159 208 225 205 205 213 212 220 241 267 276 282 295 311 315 312 307
62 63 62 61 60 57 57 54 50 48 57 63 63 74 73 77 88 81 67 64 55 53 68 91 51 309 312 298 245 230 242 238 230 235 254 291 287 285 292 304 301 296 297
58 58 59 56 52 48 50 48 45 48 60 58 63 69 68 68 76 75 48 30 40 49 45 52 27 12 356 339 311 271 247 255 261 263 277 284 279 278 286 289 287 288 295
54 54 55 52 48 46 46 44 41 48 53 52 56 56 51 50 54 58 40 16 12 23 25 31 42 35 22 354 326 301 280 263 256 255 275 282 282 287 286 290 287 285 291
51 54 54 48 46 45 45 45 45 48 47 48 50 53 42 39 41 42 24 16 8 6 10 25 18 3 347 346 346 326 312 288 281 272 283 290 295 293 291 291 286 289 291
51 52 50 46 43 42 45 48 46 42 39 41 45 44 38 34 33 29 19 16 18 17 12 10 7 354 334 324 321 317 315 316 299 291 292 296 297 297 296 291 290 295 296
49 49 44 41 41 44 45 45 44 40 38 37 32 29 25 24 25 24 23 19 14 11 2 354 345 335 325 318 311 304 303 309 305 303 305 303 301 298 294 294 291 298 297
42 43 41 38 38 40 40 37 33 38 37 34 28 25 27 24 20 18 15 13 8 357 350 342 330 321 317 312 307 304 303 302 304 303 303 301 296 295 294 292 291 297 298
34 34 34 35 35 36 35 31 29 29 27 26 22 20 18 13 9 5 359 354 354 351 344 335 323 314 307 302 301 301 301 299 299 298 295 297 300 303 295 297 298 297 297